Flag for U.S.A. Weather past 2 weeks in Washington DC, District of Columbia, U.S.A.

77 °F

Passing clouds.

Feels Like: 79 °F
Forecast: 56 / 76 °F
Wind: 10 mph from Northwest

Location: Reagan National Airport

Current Time: Oct 7, 2015 at 6:18:40 PM

Latest Report: Oct 7, 2015 at 4:52 PM

Visibility: 10 mi

Pressure: 30.01 "Hg

Humidity: 48%

Dew point: 56 °F

Location of Washington DCLocation

Historic Weather in Washington DC — Graph


Washington DC temperature yesterday

Maximum temperature yesterday: 76 °F (at 3:52 PM)
Minimum temperature yesterday: 51 °F (at 4:52 AM)
Average temperature yesterday: 63 °F

Past Weeks' High & Low Weather Summary

High82 °F (Sep 28, 4:52 PM)100% (Sep 29, 10:01 PM)30.40 "Hg (Sep 29, 10:01 PM)
Low50 °F (Oct 3, 3:52 AM)29% (Sep 23, 3:52 PM)29.69 "Hg (Sep 30, 4:56 AM)
Average65 °F76%30.13 "Hg
* Reported Sep 22 4:52 PM — Oct 7 4:52 PM, Washington DC, Weather by CustomWeather, © 2015

Note: Actual official high and low records may vary slightly from our data, if they occured in-between our weather recording intervals... More about our weather records


Washington DC weather history for previous 24 hours

Time TempWeatherWind HumidityBarometerVisibility
4:52 PM
Wed, Oct 7
77 °FPassing clouds.10 mph48%30.01 "Hg10 mi
3:52 PM78 °FScattered clouds.13 mph48%30.01 "Hg10 mi
2:52 PM77 °FScattered clouds.7 mph50%30.02 "Hg10 mi
1:52 PM76 °FBroken clouds.8 mph52%30.04 "Hg10 mi
12:52 PM68 °FScattered clouds.5 mph70%30.06 "Hg10 mi
11:52 AM68 °FOvercast.3 mph70%30.07 "Hg10 mi
10:52 AM66 °FOvercast.No wind75%30.07 "Hg10 mi
9:52 AM63 °FOvercast.No wind84%30.07 "Hg10 mi
8:52 AM64 °FMostly cloudy.No wind81%30.06 "Hg10 mi
7:52 AM61 °FMostly cloudy.No wind90%30.04 "Hg10 mi
6:52 AM62 °FPassing clouds.3 mph83%30.03 "Hg10 mi
5:52 AM59 °FPassing clouds.No wind93%30.01 "Hg10 mi
4:52 AM59 °FMostly cloudy.No wind90%30.00 "Hg10 mi
3:52 AM59 °FPassing clouds.No wind93%29.99 "Hg10 mi
2:52 AM59 °FPassing clouds.No wind93%30.00 "Hg10 mi
1:52 AM59 °FPassing clouds.No wind96%30.00 "Hg10 mi
12:52 AM60 °FPassing clouds.No wind93%30.00 "Hg10 mi
11:52 PM
Tue, Oct 6
61 °FPassing clouds.No wind87%30.00 "Hg10 mi
10:52 PM61 °FPassing clouds.3 mph87%30.00 "Hg10 mi
9:52 PM62 °FClear.6 mph83%29.99 "Hg10 mi
8:52 PM64 °FPassing clouds.No wind73%30.00 "Hg10 mi
7:52 PM70 °FPassing clouds.8 mph53%30.00 "Hg10 mi
6:52 PM71 °FPartly sunny.8 mph49%30.00 "Hg10 mi
Weather by CustomWeather, © 2015

See weather overviewHow to use our weather pages